Location: McCloud Nature Park
(39.8272°N, 86.6824°W)
Time: 07:22:54
(UTC-05:00)

Amateur Radio Satellites - All Passes

Search period start: 23 September 2014 06:52
Search period end: 24 September 2014 06:52
Location: McCloud Nature Park, 39.8272°N, 86.6824°W

Satellite Date Start Highest point End Downlink Frequencies (MHz)
Time Altitude Azimuth
RS-15 23 Sep 07:04:41 07:13:01 24° 335° (NNW) 07:21:25 29.354 - 29.394 USB, Beacon 29.352 USB
JAS-2 23 Sep 07:14:16 07:20:21 58° 288° (WNW) 07:27:12 435.800 - 435.900 CW/SSB, 435.910 FM
Hamsat 23 Sep 07:17:23 07:21:18 38° 288° (WNW) 07:25:11 145.90 MHz
SO-67 23 Sep 07:41:16 07:44:40 52° 99° (E) 07:48:01 435.3500 MHz FM
ISS 23 Sep 07:52:24 07:55:44 79° 37° (NE) 07:59:03 145.800 FM
MaSat-1 23 Sep 07:53:52 07:58:50 67° 297° (WNW) 08:03:42 437.345 MHz
AO-7 23 Sep 08:06:51 08:09:12 11° 316° (NW) 08:11:33 29.400 - 29.500 MHz
UOSAT-12 23 Sep 08:08:29 08:13:14 75° 57° (ENE) 08:17:52 437.025 FM, 437.400 FM
STRAND 1 23 Sep 08:16:07 08:18:35 14° 269° (W) 08:21:04 ?
HO-68 23 Sep 08:33:28 08:38:22 19° 92° (E) 08:43:14 435.675 MHz FM
RS-15 23 Sep 09:23:43 09:31:02 19° 12° (NNE) 09:38:27 29.354 - 29.394 USB, Beacon 29.352 USB
UKube-1 23 Sep 09:25:36 09:28:33 18° 94° (E) 09:31:30 145.840 MHz, 145.915 MHz
ISS 23 Sep 09:31:13 09:31:58 11° 232° (SW) 09:32:44 145.800 FM
MaSat-1 23 Sep 09:35:53 09:36:21 10° 314° (NW) 09:36:49 437.345 MHz
ZACube-1 23 Sep 09:50:32 09:51:28 11° 89° (E) 09:52:24 437.345 MHz
UOSAT-12 23 Sep 09:51:04 09:52:42 12° 253° (WSW) 09:54:20 437.025 FM, 437.400 FM
HO-68 23 Sep 10:19:31 10:26:41 75° 289° (WNW) 10:33:50 435.675 MHz FM
Sapphire 23 Sep 10:20:34 10:24:20 20° 105° (ESE) 10:28:06 437.095 MHz 1200 baud AX-25 AFSK
Oscar 11 23 Sep 10:39:47 10:44:09 87° 282° (WNW) 10:48:27 145.825 FM, Beacon 2401.500 USB
FUNcube-1 23 Sep 10:40:39 10:44:59 38° 97° (E) 10:49:12 145.950 - 145.970 MHz USB
PCSat 23 Sep 10:45:46 10:50:39 36° 110° (ESE) 10:55:34 145.825 MHz
UKube-1 23 Sep 11:00:50 11:04:53 39° 289° (WNW) 11:08:56 145.840 MHz, 145.915 MHz
ZACube-1 23 Sep 11:23:44 11:28:22 71° 285° (WNW) 11:32:52 437.345 MHz
RS-15 23 Sep 11:36:59 11:47:26 44° 44° (NE) 11:58:13 29.354 - 29.394 USB, Beacon 29.352 USB
Oscar 19 23 Sep 11:54:23 11:55:09 10° 58° (ENE) 11:55:55 437.125 CW, 437.150 USB
Sapphire 23 Sep 12:01:59 12:07:17 55° 302° (WNW) 12:12:37 437.095 MHz 1200 baud AX-25 AFSK
HO-68 23 Sep 12:09:39 12:13:12 15° 307° (NW) 12:16:44 435.675 MHz FM
FUNcube-1 23 Sep 12:17:41 12:21:04 21° 294° (WNW) 12:24:25 145.950 - 145.970 MHz USB
PCSat 23 Sep 12:29:15 12:34:04 32° 308° (NW) 12:38:56 145.825 MHz
Oscar 16 23 Sep 12:30:08 12:34:13 24° 65° (ENE) 12:38:20 437.025 USB, Beacon 2401.1428
JAS-1B 23 Sep 12:34:54 12:40:53 24° 63° (ENE) 12:46:10 435.800 - 435.900 CW/SSB
ITAMSAT 1 23 Sep 13:21:47 13:26:14 30° 67° (ENE) 13:30:42 435.822 SSB
Uribyol 2 23 Sep 13:24:41 13:29:18 34° 68° (ENE) 13:33:57 436.500 FM
Oscar 19 23 Sep 13:28:26 13:33:38 81° 75° (ENE) 13:38:51 437.125 CW, 437.150 USB
Gurwin Techsat 1B 23 Sep 13:35:31 13:39:18 20° 64° (ENE) 13:43:05 435.225 FM
AO-Echo 23 Sep 13:47:45 13:52:23 59° 73° (ENE) 13:57:00 ?
RS-15 23 Sep 13:49:22 14:00:12 60° 247° (WSW) 14:11:30 29.354 - 29.394 USB, Beacon 29.352 USB
Sapphire 23 Sep 13:51:06 13:51:57 10° 323° (NW) 13:52:48 437.095 MHz 1200 baud AX-25 AFSK
AO-27 23 Sep 13:57:07 14:02:14 66° 73° (ENE) 14:07:23 436.795 MHz FM
Oscar 16 23 Sep 14:08:26 14:13:19 41° 262° (W) 14:18:14 437.025 USB, Beacon 2401.1428
TMSAT-1 23 Sep 14:08:53 14:13:24 30° 67° (ENE) 14:17:56 436.925 FM
JAS-1B 23 Sep 14:22:38 14:31:05 69° 257° (WSW) 14:38:07 435.800 - 435.900 CW/SSB
ITAMSAT 1 23 Sep 15:01:04 15:05:38 32° 263° (W) 15:10:14 435.822 SSB
Uosat F 23 Sep 15:03:25 15:06:28 16° 62° (ENE) 15:09:31 435.120 FM
Uribyol 2 23 Sep 15:04:23 15:08:46 28° 264° (W) 15:13:12 436.500 FM
Oscar 19 23 Sep 15:12:06 15:13:33 11° 271° (W) 15:15:00 437.125 CW, 437.150 USB
Gurwin Techsat 1B 23 Sep 15:13:42 15:18:51 52° 260° (W) 15:24:02 435.225 FM
AO-7 23 Sep 15:16:04 15:23:45 44° 63° (ENE) 15:31:26 29.400 - 29.500 MHz
AO-Echo 23 Sep 15:29:20 15:31:32 13° 269° (W) 15:33:44 ?
AO-27 23 Sep 15:39:33 15:42:12 14° 269° (W) 15:44:52 436.795 MHz FM
TMSAT-1 23 Sep 15:48:27 15:53:12 34° 263° (W) 15:57:59 436.925 FM
MaSat-1 23 Sep 16:12:04 16:14:34 17° 51° (NE) 16:16:51 437.345 MHz
Saudisat 1A 23 Sep 16:16:21 16:20:45 86° 121° (ESE) 16:25:11 436.775 MHz
JAS-1B 23 Sep 16:21:02 16:22:20 10° 271° (W) 16:23:36 435.800 - 435.900 CW/SSB
OPAL 23 Sep 16:21:20 16:23:04 12° 91° (E) 16:24:47 ?
Hamsat 23 Sep 16:36:19 16:38:08 13° 64° (ENE) 16:39:58 145.90 MHz
Uosat F 23 Sep 16:39:50 16:44:45 59° 259° (WSW) 16:49:42 435.120 FM
KITSAT 1 23 Sep 16:52:38 16:56:14 14° 99° (E) 16:59:49 435.175 FM
AO-7 23 Sep 17:08:47 17:16:30 42° 260° (W) 17:24:15 29.400 - 29.500 MHz
JAS-2 23 Sep 17:26:45 17:31:49 54° 72° (ENE) 17:36:54 435.800 - 435.900 CW/SSB, 435.910 FM
MaSat-1 23 Sep 17:48:18 17:51:18 26° 254° (WSW) 17:53:55 437.345 MHz
OPAL 23 Sep 17:57:21 18:02:30 78° 287° (WNW) 18:07:33 ?
Saudisat 1A 23 Sep 17:58:45 18:00:56 13° 320° (NW) 18:03:07 436.775 MHz
Hamsat 23 Sep 18:09:16 18:13:34 61° 260° (W) 18:17:53 145.90 MHz
SO-67 23 Sep 18:14:31 18:16:41 16° 69° (ENE) 18:18:51 435.3500 MHz FM
AO-40 23 Sep 18:35:23 00:17:25 40° 185° (S) 05:50:48 Beacon 2401.320
KITSAT 1 23 Sep 18:42:14 18:50:17 78° 117° (ESE) 18:58:23 435.175 FM
STRAND 1 23 Sep 18:45:56 18:50:02 24° 95° (E) 18:54:08 ?
HO-68 23 Sep 19:03:30 19:07:11 15° 53° (NE) 19:10:52 435.675 MHz FM
Sapphire 23 Sep 19:08:28 19:11:56 17° 44° (NE) 19:15:23 437.095 MHz 1200 baud AX-25 AFSK
JAS-2 23 Sep 19:14:17 19:17:21 16° 269° (W) 19:20:26 435.800 - 435.900 CW/SSB, 435.910 FM
PCSat 23 Sep 19:34:19 19:38:55 27° 50° (NE) 19:43:28 145.825 MHz
OPAL 23 Sep 19:40:07 19:40:28 10° 305° (NW) 19:40:50 ?
SO-67 23 Sep 19:46:32 19:49:29 26° 264° (W) 19:52:27 435.3500 MHz FM
UKube-1 23 Sep 20:21:12 20:23:41 15° 64° (ENE) 20:26:11 145.840 MHz, 145.915 MHz
STRAND 1 23 Sep 20:24:34 20:29:19 39° 290° (WNW) 20:34:05 ?
KITSAT 1 23 Sep 20:39:48 20:46:30 28° 318° (NW) 20:53:14 435.175 FM
HO-68 23 Sep 20:46:37 20:53:44 77° 72° (ENE) 21:00:53 435.675 MHz FM
Sapphire 23 Sep 20:50:35 20:56:03 83° 243° (WSW) 21:01:28 437.095 MHz 1200 baud AX-25 AFSK
SO-50 23 Sep 21:06:16 21:10:37 56° 118° (ESE) 21:15:06 436.795 FM
PCSat 23 Sep 21:17:21 21:22:30 45° 248° (WSW) 21:27:37 145.825 MHz
Oscar 11 23 Sep 21:33:45 21:38:05 66° 75° (ENE) 21:42:26 145.825 FM, Beacon 2401.500 USB
FUNcube-1 23 Sep 21:36:28 21:40:17 29° 69° (ENE) 21:44:11 145.950 - 145.970 MHz USB
UKube-1 23 Sep 21:55:17 21:59:28 49° 260° (W) 22:03:41 145.840 MHz, 145.915 MHz
ZACube-1 23 Sep 22:19:05 22:23:31 84° 76° (ENE) 22:28:06 437.345 MHz
UOSAT-12 23 Sep 22:19:32 22:23:22 26° 112° (ESE) 22:27:17 437.025 FM, 437.400 FM
HO-68 23 Sep 22:37:28 22:42:06 18° 269° (W) 22:46:46 435.675 MHz FM
KITSAT 1 23 Sep 22:44:54 22:45:20 10° 347° (NNW) 22:45:47 435.175 FM
SO-50 23 Sep 22:48:18 22:51:32 19° 317° (NW) 22:54:51 436.795 FM
FUNcube-1 23 Sep 23:12:55 23:16:37 26° 265° (W) 23:20:24 145.950 - 145.970 MHz USB
Oscar 11 23 Sep 23:14:03 23:14:41 10° 270° (W) 23:15:19 145.825 FM, Beacon 2401.500 USB
PANSAT 23 Sep 23:37:01 23:38:16 11° 168° (SSE) 23:39:31 not established
UOSAT-12 23 Sep 23:59:06 00:03:22 35° 310° (NW) 00:07:43 437.025 FM, 437.400 FM
ISS 24 Sep 00:34:07 00:37:13 37° 136° (SE) 00:40:20 145.800 FM
KITSAT 1 24 Sep 00:42:56 00:45:29 12° 19° (NNE) 00:48:02 435.175 FM
Saudisat 1A 24 Sep 00:43:48 00:48:09 54° 55° (NE) 00:52:28 436.775 MHz
PANSAT 24 Sep 01:15:28 01:17:43 15° 181° (S) 01:19:57 not established
ITAMSAT 1 24 Sep 01:37:58 01:39:02 11° 89° (E) 01:40:06 435.822 SSB
Uribyol 2 24 Sep 01:39:58 01:42:06 12° 90° (E) 01:44:14 436.500 FM
Oscar 19 24 Sep 01:41:20 01:45:52 30° 96° (E) 01:50:20 437.125 CW, 437.150 USB
AO-Echo 24 Sep 01:56:03 01:59:43 21° 94° (E) 02:03:26 ?
RS-15 24 Sep 02:02:49 02:10:56 24° 102° (ESE) 02:18:55 29.354 - 29.394 USB, Beacon 29.352 USB
JAS-1B 24 Sep 02:09:18 02:14:12 29° 96° (E) 02:19:15 435.800 - 435.900 CW/SSB
ISS 24 Sep 02:11:03 02:13:58 27° 333° (NNW) 02:16:54 145.800 FM
AO-27 24 Sep 02:11:31 02:15:48 25° 95° (E) 02:20:03 436.795 MHz FM
Oscar 16 24 Sep 02:20:33 02:25:44 76° 103° (ESE) 02:30:52 437.025 USB, Beacon 2401.1428
Saudisat 1A 24 Sep 02:24:45 02:27:16 15° 251° (WSW) 02:29:47 436.775 MHz
TMSAT-1 24 Sep 02:27:23 02:29:11 12° 89° (E) 02:30:57 436.925 FM
KITSAT 1 24 Sep 02:36:36 02:43:51 35° 46° (NE) 02:51:03 435.175 FM
PANSAT 24 Sep 02:56:20 02:57:09 11° 193° (SSW) 02:57:58 not established
ITAMSAT 1 24 Sep 03:13:54 03:19:09 85° 285° (WNW) 03:24:22 435.822 SSB
Uribyol 2 24 Sep 03:16:52 03:22:06 75° 286° (WNW) 03:27:19 436.500 FM
Oscar 19 24 Sep 03:20:38 03:25:08 31° 292° (WNW) 03:29:37 437.125 CW, 437.150 USB
AO-7 24 Sep 03:21:46 03:24:28 12° 88° (E) 03:27:10 29.400 - 29.500 MHz
Gurwin Techsat 1B 24 Sep 03:30:29 03:35:48 68° 102° (ESE) 03:41:04 435.225 FM
AO-Echo 24 Sep 03:33:59 03:38:37 43° 289° (WNW) 03:43:22 ?
OPAL 24 Sep 03:34:12 03:38:07 22° 62° (ENE) 03:42:04 ?
ISS 24 Sep 03:50:17 03:51:33 12° 353° (N) 03:52:49 145.800 FM
AO-27 24 Sep 03:50:34 03:55:23 38° 291° (WNW) 04:00:10 436.795 MHz FM
JAS-1B 24 Sep 03:59:55 04:04:57 33° 293° (WNW) 04:10:04 435.800 - 435.900 CW/SSB
Oscar 16 24 Sep 04:01:53 04:04:25 14° 299° (WNW) 04:06:56 437.025 USB, Beacon 2401.1428
TMSAT-1 24 Sep 04:04:21 04:09:41 80° 285° (WNW) 04:14:59 436.925 FM
RS-15 24 Sep 04:10:51 04:21:56 83° 302° (WNW) 04:32:56 29.354 - 29.394 USB, Beacon 29.352 USB
KITSAT 1 24 Sep 04:31:46 04:39:38 59° 247° (WSW) 04:47:29 435.175 FM
Uosat F 24 Sep 04:48:17 04:53:06 44° 99° (E) 04:57:54 435.120 FM
ITAMSAT 1 24 Sep 04:56:30 04:57:48 11° 302° (WNW) 04:59:06 435.822 SSB
AO-7 24 Sep 05:10:16 05:18:34 72° 105° (ESE) 05:26:50 29.400 - 29.500 MHz
OPAL 24 Sep 05:11:39 05:16:39 47° 258° (WSW) 05:21:42 ?
Gurwin Techsat 1B 24 Sep 05:12:04 05:15:10 16° 299° (WNW) 05:18:16 435.225 FM
ISS 24 Sep 05:27:36 05:29:24 14° 13° (NNE) 05:31:12 145.800 FM
SO-50 24 Sep 05:38:26 05:43:03 43° 52° (NE) 05:47:41 436.795 FM
TMSAT-1 24 Sep 05:47:48 05:48:43 10° 302° (WNW) 05:49:37 436.925 FM
Hamsat 24 Sep 05:56:22 05:59:49 24° 95° (E) 06:03:13 145.90 MHz
MaSat-1 24 Sep 05:57:53 05:59:36 12° 100° (E) 06:01:18 437.345 MHz
STRAND 1 24 Sep 06:01:09 06:05:37 32° 68° (ENE) 06:10:07 ?
JAS-2 24 Sep 06:19:11 06:25:25 58° 101° (E) 06:32:26 435.800 - 435.900 CW/SSB, 435.910 FM
RS-15 24 Sep 06:27:10 06:36:10 28° 329° (NNW) 06:45:13 29.354 - 29.394 USB, Beacon 29.352 USB
Uosat F 24 Sep 06:27:49 06:31:34 21° 295° (WNW) 06:35:18 435.120 FM
